Погода в Изобильном

Россия / Республика Крым     45°06′38″N   35°12′06″E
темп.,
°C
ветер,
м/с
пор.,
м/с
влажн.,
%
обл.,
%
осадки,
мм/ч
давл.,
гПа
погр.,
м
23 апреля, пт
пт2300:00+8юз33811 0.0 102447
03:00+8ююз35870 0.0 102395
06:00+8ююз358712 0.0 102396
09:00+12ююз576864 0.0 1023501
12:00+13ю6864100 0.0 1022771
15:00+13ю5866100 0.0 1021635
18:00+11ю5874100 0.0 1020442
21:00+10ююз5881100 0.0 1019262
24 апреля, сб
сб2400:00+9юз468768 0.0 1019122
03:00+9зсз227928 0.0 101822
06:00+9сз387425 0.0 1018345
09:00+10ссз797633 0.0 1021710
12:00+13с67524 0.0 10211001
15:00+14с564771 0.0 10211554
18:00+12всв1255100 0.0 1022372
21:00+10ююз2263100 0.0 102329
25 апреля, вс
вс2500:00+9сз2266100 0.0 102340
03:00+7сз346171 0.0 102372
06:00+6сз3474100 0.0 102282
09:00+10св4663100 0.0 1021513
12:00+12всв5652100 0.0 10201227
15:00+12св5654100 0.0 10191167
18:00+10св5660100 0.0 1018869
21:00+7с357299 0.0 1019175
26 апреля, пн
пн2600:00+6ссз338036 0.0 101894
03:00+6ссз3488100 0.0 101791
06:00+5ссз3491100 0.0 1016105
09:00+10с676958 0.0 1017798
12:00+13с67507 0.0 1017929
15:00+14с565228 0.0 10161200
18:00+12с236265 0.0 1017326
21:00+10ссз457596 0.0 1019434
27 апреля, вт
вт2700:00+7с348328 0.0 1020125
03:00+6ссз238352 0.0 101963
06:00+6всв11760 0.0 101959
09:00+10юв33580 0.0 1019543
12:00+12ю455475 0.0 1019951
15:00+13ю555781 0.0 1017902
18:00+11ююз5574100 0.0 1017469
21:00+9ююз3487100 0.0 1018107